Weather History for Corinth, MS

Change the Weather History Date:

Saturday, January 25, 2014

  Actual Average Record
Temperature  
Mean Temperature 38 °F -  
Max Temperature 51 °F 52 °F 79 °F (1950)
Min Temperature 26 °F 31 °F 8 °F (1940)
Degree Days  
Heating Degree Days 26    
Moisture  
Dew Point 14 °F    
Average Humidity 40    
Maximum Humidity 80    
Minimum Humidity 28    
Precipitation  
Precipitation 0.00 in - - ()
Sea Level Pressure  
Sea Level Pressure 29.99 in    
Wind  
Wind Speed 10 mph (WSW)    
Max Wind Speed 17 mph    
Max Gust Speed 24 mph    
Visibility 10 miles    
Events      
Averages and records for this station are not official NWS values.
T = Trace of Precipitation, MM = Missing Value Source: NWS Daily Summary

Daily Weather History Graph

Daily Weather History Graph

Search for Another Location

Airport:

Trip Planner

Search our weather history database for the weather conditions in past years. The results will help you decide how hot, cold, wet, or windy it might be!

Date:

Astronomy

Jan. 25, 2014 Rise Set
Actual Time 6:57 AM CST 5:16 PM CST
Civil Twilight 6:30 AM CST 5:43 PM CST
Nautical Twilight 6:00 AM CST 6:13 PM CST
Astronomical Twilight 5:30 AM CST 6:43 PM CST
Moon 1:30 AM CST (1/25) 12:16 PM CST (1/25)
Length of Visible Light 11h 12m
Length of Day
10h 18m
Waning Crescent, 34% of the Moon is Illuminated
Jan 25
Waning Crescent
Jan 30
New
Feb 6
First Quarter
Feb 14
Full
Feb 22
Last Quarter

Hourly Weather History & Observations

Time (CST) Temp. Windchill Dew Point Humidity Pressure Visibility Wind Dir Wind Speed Gust Speed Precip Events Conditions
12:15 AM 26.6 °F 15.7 °F -0.4 °F 31% 30.16 in 10.0 mi SSW 12.7 mph - N/A   Clear
12:35 AM 26.6 °F 16.8 °F -0.4 °F 31% 30.14 in 10.0 mi SSW 10.4 mph 19.6 mph N/A   Clear
12:55 AM 26.6 °F 17.5 °F 1.4 °F 34% 30.14 in 10.0 mi SSW 9.2 mph 18.4 mph N/A   Clear
1:15 AM 26.6 °F 15.7 °F 1.4 °F 34% 30.13 in 10.0 mi SSW 12.7 mph 19.6 mph N/A   Clear
1:35 AM 26.6 °F 16.8 °F 1.4 °F 34% 30.11 in 10.0 mi SW 10.4 mph 19.6 mph N/A   Scattered Clouds
1:55 AM 28.4 °F 18.5 °F 3.2 °F 34% 30.10 in 10.0 mi SW 11.5 mph 16.1 mph N/A   Mostly Cloudy
2:15 AM 28.4 °F 18.5 °F 1.4 °F 31% 30.09 in 10.0 mi SW 11.5 mph 21.9 mph N/A   Overcast
2:35 AM 28.4 °F 19.1 °F 3.2 °F 34% 30.08 in 10.0 mi SW 10.4 mph - N/A   Overcast
2:55 AM 28.4 °F 18.5 °F 3.2 °F 34% 30.07 in 10.0 mi SSW 11.5 mph 19.6 mph N/A   Overcast
3:15 AM 28.4 °F 19.1 °F 3.2 °F 34% 30.06 in 10.0 mi SW 10.4 mph 18.4 mph N/A   Overcast
3:35 AM 30.2 °F 20.8 °F 3.2 °F 32% 30.05 in 10.0 mi SSW 11.5 mph 19.6 mph N/A   Overcast
3:55 AM 30.2 °F 20.8 °F 5.0 °F 34% 30.03 in 10.0 mi SW 11.5 mph 18.4 mph N/A   Overcast
4:15 AM 28.4 °F 18.5 °F 5.0 °F 37% 30.02 in 10.0 mi SW 11.5 mph 19.6 mph N/A   Mostly Cloudy
4:35 AM 28.4 °F 17.5 °F 5.0 °F 37% 30.01 in 10.0 mi SW 13.8 mph 18.4 mph N/A   Partly Cloudy
4:55 AM 28.4 °F 19.1 °F 5.0 °F 37% 30.00 in 10.0 mi SSW 10.4 mph 16.1 mph N/A   Partly Cloudy
5:15 AM 28.4 °F 19.7 °F 6.8 °F 40% 30.00 in 10.0 mi SW 9.2 mph 16.1 mph N/A   Mostly Cloudy
5:35 AM 28.4 °F 18.0 °F 6.8 °F 40% 29.99 in 10.0 mi SSW 12.7 mph 17.3 mph N/A   Overcast
5:55 AM 30.2 °F 21.9 °F 6.8 °F 37% 29.98 in 10.0 mi SSW 9.2 mph 17.3 mph N/A   Overcast
6:15 AM 30.2 °F 22.6 °F 8.6 °F 40% 29.98 in 10.0 mi SW 8.1 mph - N/A   Overcast
6:35 AM 30.2 °F 21.9 °F 8.6 °F 40% 29.97 in 10.0 mi SSW 9.2 mph - N/A   Overcast
6:55 AM 30.2 °F 21.3 °F 8.6 °F 40% 29.96 in 10.0 mi SSW 10.4 mph 19.6 mph N/A   Overcast
7:15 AM 32.0 °F 25.6 °F 8.6 °F 38% 29.97 in 10.0 mi SW 6.9 mph - N/A   Overcast
7:35 AM 32.0 °F 24.2 °F 10.4 °F 41% 29.96 in 10.0 mi SSW 9.2 mph - N/A   Overcast
7:55 AM 32.0 °F 23.6 °F 10.4 °F 41% 29.96 in 10.0 mi SW 10.4 mph - N/A   Overcast
8:15 AM 32.0 °F 23.0 °F 10.4 °F 41% 29.96 in 10.0 mi SW 11.5 mph 16.1 mph N/A   Overcast
8:35 AM 32.0 °F 22.5 °F 10.4 °F 41% 29.96 in 10.0 mi WSW 12.7 mph 19.6 mph N/A   Overcast
8:55 AM 33.8 °F 24.8 °F 12.2 °F 41% 29.96 in 10.0 mi WSW 12.7 mph 19.6 mph N/A   Overcast
9:15 AM 35.6 °F 28.0 °F 12.2 °F 38% 29.97 in 10.0 mi WSW 10.4 mph - N/A   Mostly Cloudy
9:35 AM 37.4 °F 27.8 °F 12.2 °F 36% 29.97 in 10.0 mi West 17.3 mph 21.9 mph N/A   Partly Cloudy
9:55 AM 37.4 °F 28.5 °F 14.0 °F 38% 29.97 in 10.0 mi West 15.0 mph 24.2 mph N/A   Clear
10:15 AM 39.2 °F 31.6 °F 14.0 °F 36% 29.97 in 10.0 mi WSW 12.7 mph 20.7 mph N/A   Clear
10:35 AM 39.2 °F 32.5 °F 14.0 °F 36% 29.96 in 10.0 mi West 10.4 mph 21.9 mph N/A   Clear
10:55 AM 41.0 °F 34.3 °F 14.0 °F 33% 29.96 in 10.0 mi WSW 11.5 mph 20.7 mph N/A   Clear
11:15 AM 42.8 °F 36.2 °F 15.8 °F 34% 29.95 in 10.0 mi West 12.7 mph - N/A   Clear
11:35 AM 44.6 °F 38.4 °F 17.6 °F 34% 29.95 in 10.0 mi West 12.7 mph 20.7 mph N/A   Clear
11:55 AM 46.4 °F 40.7 °F 17.6 °F 32% 29.93 in 10.0 mi West 12.7 mph 20.7 mph N/A   Clear
12:15 PM 46.4 °F 39.8 °F 19.4 °F 34% 29.93 in 10.0 mi WNW 16.1 mph 21.9 mph N/A   Clear
12:35 PM 46.4 °F 41.5 °F 19.4 °F 34% 29.93 in 10.0 mi West 10.4 mph - N/A   Clear
12:55 PM 48.2 °F - 21.2 °F 34% 29.92 in 10.0 mi WNW 15.0 mph 24.2 mph N/A   Clear
1:15 PM 48.2 °F - 21.2 °F 34% 29.91 in 10.0 mi West 13.8 mph 17.3 mph N/A   Clear
1:35 PM 50.0 °F - 19.4 °F 30% 29.91 in 10.0 mi West 12.7 mph 18.4 mph N/A   Clear
1:55 PM 50.0 °F - 19.4 °F 30% 29.90 in 10.0 mi West 11.5 mph 16.1 mph N/A   Clear
2:15 PM 50.0 °F - 19.4 °F 30% 29.90 in 10.0 mi West 12.7 mph - N/A   Clear
2:35 PM 50.0 °F - 19.4 °F 30% 29.91 in 10.0 mi West 8.1 mph - N/A   Clear
2:55 PM 50.0 °F - 19.4 °F 30% 29.91 in 10.0 mi WNW 13.8 mph 23.0 mph N/A   Clear
3:15 PM 51.8 °F - 19.4 °F 28% 29.91 in 10.0 mi NW 15.0 mph 23.0 mph N/A   Clear
3:35 PM 51.8 °F - 19.4 °F 28% 29.92 in 10.0 mi WNW 17.3 mph 20.7 mph N/A   Clear
3:55 PM 50.0 °F - 19.4 °F 30% 29.92 in 10.0 mi WNW 13.8 mph 23.0 mph N/A   Clear
4:15 PM 50.0 °F - 19.4 °F 30% 29.93 in 10.0 mi WNW 8.1 mph - N/A   Clear
4:35 PM 50.0 °F - 19.4 °F 30% 29.94 in 10.0 mi West 8.1 mph - N/A   Clear
4:55 PM 48.2 °F - 19.4 °F 32% 29.94 in 8.0 mi West 6.9 mph - N/A   Clear
5:15 PM 46.4 °F 44.3 °F 19.4 °F 34% 29.94 in 10.0 mi WSW 4.6 mph - N/A   Clear
5:35 PM 46.4 °F 42.9 °F 19.4 °F 34% 29.95 in 10.0 mi SW 6.9 mph - N/A   Clear
5:55 PM 46.4 °F 44.3 °F 19.4 °F 34% 29.96 in 10.0 mi WSW 4.6 mph - N/A   Clear
6:15 PM 44.6 °F 42.2 °F 19.4 °F 37% 29.97 in 10.0 mi West 4.6 mph - N/A   Clear
6:35 PM 42.8 °F 38.6 °F 19.4 °F 39% 29.98 in 10.0 mi West 6.9 mph - N/A   Clear
6:55 PM 42.8 °F 40.1 °F 19.4 °F 39% 29.98 in 10.0 mi SW 4.6 mph - N/A   Clear
7:15 PM 41.0 °F 37.1 °F 19.4 °F 42% 29.99 in 10.0 mi WSW 5.8 mph - N/A   Clear
7:35 PM 41.0 °F 37.1 °F 21.2 °F 45% 30.00 in 10.0 mi WSW 5.8 mph - N/A   Clear
7:55 PM 39.2 °F 35.0 °F 21.2 °F 49% 29.99 in 10.0 mi WSW 5.8 mph - N/A   Clear
8:15 PM 39.2 °F 33.6 °F 23.0 °F 52% 30.00 in 10.0 mi WSW 8.1 mph - N/A   Clear
8:35 PM 39.2 °F 34.2 °F 23.0 °F 52% 30.00 in 10.0 mi West 6.9 mph - N/A   Clear
8:55 PM 39.2 °F 35.0 °F 23.0 °F 52% 30.00 in 10.0 mi WSW 5.8 mph - N/A   Clear
9:15 PM 39.2 °F 37.0 °F 23.0 °F 52% 30.00 in 10.0 mi West 3.5 mph - N/A   Clear
9:35 PM 32.0 °F 28.7 °F 23.0 °F 69% 30.00 in 10.0 mi NW 3.5 mph - N/A   Partly Cloudy
9:55 PM 32.0 °F - 23.0 °F 69% 30.01 in 10.0 mi Calm Calm - N/A   Clear
10:15 PM 32.0 °F - 23.0 °F 69% 30.01 in 10.0 mi Calm Calm - N/A   Clear
10:35 PM 32.0 °F 28.7 °F 23.0 °F 69% 30.01 in 10.0 mi NNE 3.5 mph - N/A   Clear
10:55 PM 32.0 °F - 23.0 °F 69% 30.01 in 10.0 mi Calm Calm - N/A   Clear
11:15 PM 28.4 °F - 21.2 °F 74% 30.00 in 10.0 mi Calm Calm - N/A   Clear
11:35 PM 28.4 °F - 23.0 °F 80% 30.00 in 10.0 mi Calm Calm - N/A   Clear
11:55 PM 28.4 °F - 21.2 °F 74% 30.00 in 10.0 mi Calm Calm - N/A   Clear